GFSNIL_925_spd_174.txt.gz
Wind_Speed
6 8 10 12 13 16 17 17 16 16 17 17 17 17 17 18 19 17 16 17 16 16
6 9 12 14 15 17 17 17 18 19 19 18 18 18 18 19 19 19 19 19 19 19
8 10 13 15 16 17 17 16 17 19 18 20 19 19 18 20 21 20 21 21 21 21
11 13 14 15 15 16 18 19 19 19 19 18 19 20 20 20 21 22 23 22 22 23
12 13 14 14 16 16 18 18 18 18 18 19 19 19 20 21 22 22 23 24 23 25
12 12 14 15 16 17 17 18 19 19 19 19 18 19 20 20 21 22 23 24 24 25
12 14 15 16 16 17 17 18 19 18 19 20 21 20 20 20 20 19 20 22 22 23
14 15 15 16 16 16 17 17 16 17 18 19 18 20 18 19 20 21 21 20 20 21
15 15 16 16 17 17 17 17 16 17 17 17 18 16 18 20 21 21 20 20 18 18
15 16 17 17 18 18 19 19 19 19 18 19 19 19 17 19 20 20 19 19 18 18
13 15 16 17 18 18 18 19 19 20 18 19 20 18 18 20 20 18 17 17 17 16
14 17 18 19 19 19 19 20 20 19 19 18 21 18 17 16 19 18 16 13 14 14
16 16 19 20 20 21 21 22 21 21 19 18 19 17 15 18 17 17 15 14 13 14
17 18 18 19 20 22 20 20 22 20 20 18 16 16 15 16 16 16 17 17 16 13

GFSNIL_925_spd_177.txt.gz
Wind_Speed
5 5 7 9 11 14 15 16 15 15 16 18 19 18 18 18 18 19 19 21 20 19
4 6 9 11 13 15 15 16 16 16 18 19 19 18 18 19 21 20 21 20 21 22
6 8 10 14 15 14 15 15 17 18 17 18 17 17 17 19 20 21 23 23 23 23
9 11 13 13 13 14 16 17 17 17 17 18 18 17 17 18 19 20 22 23 25 26
11 12 12 12 14 15 17 16 17 17 19 19 18 17 17 18 18 19 21 22 22 26
11 12 12 15 15 15 17 17 17 18 19 19 19 19 18 19 19 18 19 20 21 23
12 12 14 15 15 16 16 19 19 18 17 18 19 19 19 19 18 18 19 19 21 22
14 14 15 16 17 17 18 18 18 18 18 18 17 17 16 18 18 20 23 22 20 19
15 15 15 16 17 18 18 18 18 19 19 20 18 17 17 17 18 20 20 22 21 19
16 15 16 16 17 18 18 18 19 20 20 20 19 17 16 15 17 20 20 19 18 18
16 16 18 19 19 19 19 19 20 20 19 18 19 17 17 16 17 18 18 17 17 16
13 17 20 21 22 21 20 21 22 21 21 20 20 17 17 14 16 18 19 16 14 14
17 18 19 21 21 22 21 22 21 22 21 20 20 17 16 14 16 19 18 18 16 14
17 19 19 20 19 21 22 23 23 23 22 20 19 17 16 15 16 16 17 16 18 14

GFSNIL_925_spd_183.txt.gz
Wind_Speed
4 4 5 7 10 11 14 15 15 15 16 17 17 16 16 17 17 18 17 17 18 19
2 4 6 7 9 11 11 12 13 14 15 15 15 15 16 16 17 17 17 18 18 19
4 6 8 10 11 11 12 12 14 15 16 16 16 16 16 16 16 17 17 17 17 18
6 9 10 11 11 12 13 14 15 16 18 18 19 17 17 17 18 18 18 18 18 19
8 10 11 12 12 13 15 15 16 17 18 18 17 17 17 19 18 18 19 19 17 19
10 12 12 13 14 15 16 17 17 17 17 18 17 19 18 17 18 18 18 18 18 20
13 14 15 16 16 16 17 18 18 18 18 18 19 19 19 19 18 19 19 18 18 20
15 16 17 17 17 17 17 18 19 20 20 20 20 20 19 19 20 20 20 19 18 18
17 17 18 18 17 18 20 21 21 21 21 22 22 22 19 18 19 20 20 20 20 20
18 18 18 17 17 21 24 23 23 23 22 22 23 23 21 19 18 19 20 19 19 21
20 21 20 19 21 23 24 24 23 23 23 25 25 23 22 20 19 18 17 17 18 18
17 17 18 20 23 25 25 24 23 23 24 24 25 23 22 21 20 19 18 17 16 16
20 20 21 23 24 24 24 25 24 26 23 22 24 22 20 19 18 20 21 19 18 16
22 23 25 27 25 26 26 25 25 25 25 24 23 21 17 15 16 18 21 22 23 22

GFSNIL_925_spd_186.txt.gz
Wind_Speed
2 2 2 4 6 8 11 13 13 13 13 13 14 14 14 14 14 15 15 15 15 17
2 2 3 5 8 10 11 12 12 13 14 14 14 15 16 16 15 15 15 15 16 17
1 4 6 8 10 10 11 12 13 14 15 16 16 16 16 17 16 17 17 16 17 17
4 7 9 10 10 11 12 13 14 15 16 17 17 16 17 17 18 18 18 17 18 19
7 9 10 11 11 12 14 14 15 16 16 17 17 17 17 19 19 19 19 19 18 19
9 11 13 13 14 14 15 16 17 17 19 20 19 20 19 19 20 20 19 20 20 21
12 13 15 15 15 16 16 17 19 20 20 20 20 21 20 20 20 20 22 21 20 20
13 15 16 16 17 17 17 19 21 22 23 22 22 23 22 22 22 22 23 23 22 21
15 17 17 17 17 18 20 22 23 23 23 24 24 24 24 23 24 24 25 25 26 23
16 16 16 16 17 19 22 24 26 27 26 26 26 26 26 24 24 24 24 25 25 23
19 20 20 21 23 24 26 26 27 27 27 27 28 26 25 24 23 24 23 23 22 21
18 19 21 22 24 26 26 27 29 29 28 28 28 25 24 23 23 23 23 22 21 19
19 21 23 24 27 28 28 29 29 30 28 28 28 26 24 20 20 21 22 22 21 21
22 23 25 26 27 29 29 29 29 30 31 30 29 28 24 20 17 20 23 22 22 22

GFSNIL_925_spd_189.txt.gz
Wind_Speed
3 2 3 3 4 6 8 9 10 11 11 11 12 12 12 12 12 12 12 13 14 16
4 4 4 5 6 7 8 10 11 12 13 13 13 14 14 15 15 14 14 14 15 15
5 5 5 6 7 8 9 11 13 14 15 15 15 15 15 16 15 16 16 16 17 17
5 6 7 8 9 9 11 12 13 14 15 16 17 16 16 16 17 17 18 17 16 19
7 8 9 9 10 11 12 12 14 15 17 18 18 18 18 19 20 20 21 21 20 21
9 10 11 11 12 12 13 14 15 17 19 20 21 22 22 21 22 22 22 22 22 23
9 11 12 13 13 14 13 15 17 19 20 21 22 23 24 23 23 24 25 25 25 24
10 11 11 11 12 13 14 17 19 21 23 24 25 25 25 25 25 26 27 27 28 27
9 11 12 12 14 16 18 20 23 24 25 25 25 26 26 25 24 27 27 28 30 30
11 13 15 16 17 19 20 22 24 25 26 27 27 26 26 25 25 26 25 27 28 29
12 13 15 17 19 21 23 25 26 27 28 29 28 27 27 26 26 27 27 26 26 26
14 16 19 21 23 24 26 27 29 29 30 31 32 31 30 27 27 26 27 27 24 22
16 18 21 23 24 25 26 28 29 32 31 32 32 31 28 24 22 24 27 28 27 24
22 24 26 25 26 27 28 29 31 32 33 31 29 29 27 25 21 23 24 23 26 25

GFSNIL_925_spd_192.txt.gz
Wind_Speed
7 7 6 5 4 3 3 5 7 8 8 9 9 9 9 9 8 9 9 11 11 12
8 8 6 5 4 4 5 5 7 8 8 9 9 10 10 9 10 10 11 12 12 13
8 8 6 5 5 5 5 7 7 8 9 9 9 10 10 10 11 12 12 12 13 14
9 7 7 6 5 5 6 8 8 10 11 11 12 12 13 13 14 15 16 15 16 18
10 7 7 6 6 7 7 9 10 11 12 13 14 15 15 17 17 18 19 20 19 20
8 7 6 6 7 7 8 8 9 11 13 14 16 17 17 17 18 19 20 20 21 22
7 6 6 6 7 7 8 9 11 12 14 15 16 17 17 18 20 20 21 22 22 23
6 6 6 6 7 7 8 10 12 14 15 16 16 16 19 20 21 22 24 23 23 23
5 5 5 6 8 9 10 11 13 15 16 17 18 21 23 24 21 22 23 24 24 24
3 5 6 7 10 12 14 15 16 17 18 19 20 24 26 25 22 22 22 23 24 24
5 7 9 11 12 14 14 16 17 18 19 20 21 23 25 26 22 23 25 25 24 23
6 8 11 13 15 17 16 17 18 19 20 21 23 22 24 23 21 23 25 25 24 24
9 12 15 16 18 19 19 21 20 22 22 23 24 24 23 21 21 23 24 25 24 23
13 15 17 18 19 22 23 23 24 25 25 25 23 24 22 22 19 20 23 24 26 24

GFSNIL_925_spd_198.txt.gz
Wind_Speed
14 16 15 14 12 10 7 6 5 6 5 5 6 6 7 6 6 7 9 11 12 14
16 14 14 12 10 10 8 7 5 5 4 4 5 6 8 8 8 9 11 12 13 14
16 17 15 12 11 8 7 6 5 4 4 5 5 6 8 9 10 11 12 14 15 17
17 15 14 12 9 8 5 5 4 4 4 5 7 9 9 11 11 13 14 16 17 17
17 14 13 11 8 6 5 4 3 4 5 7 8 9 10 11 11 13 15 16 18 19
15 13 11 9 7 5 3 1 2 5 7 8 9 11 12 11 11 15 15 17 19 21
13 11 9 7 4 2 2 2 4 6 7 9 11 14 13 12 18 18 18 19 21 22
11 8 6 4 3 0 2 4 5 9 11 12 15 17 15 19 21 21 22 24 24 24
10 7 5 3 1 2 4 6 9 12 14 16 18 19 20 22 23 24 25 26 27 26
7 5 2 0 2 5 7 10 13 16 18 19 22 23 24 25 26 26 27 28 27 26
7 6 3 3 5 8 11 14 17 20 22 24 26 26 26 25 26 27 27 26 27 27
7 5 3 6 9 12 15 18 21 25 26 27 29 28 27 27 27 24 25 27 26 25
6 5 8 10 14 17 20 23 25 28 29 29 30 28 26 25 26 25 27 27 25 23
7 9 11 15 18 21 24 27 29 30 30 29 29 29 26 26 23 24 26 24 24 24

GFSNIL_925_spd_201.txt.gz
Wind_Speed
25 23 22 20 20 18 13 10 8 7 5 4 3 5 6 6 6 7 8 10 10 11
21 24 25 22 19 16 12 11 9 7 5 4 3 4 5 6 7 9 8 10 11 13
23 22 22 21 19 17 14 11 9 7 5 3 3 4 6 7 7 8 10 11 12 13
23 22 21 20 17 15 13 10 8 6 3 1 3 6 6 7 8 8 11 13 14 16
24 21 19 18 16 13 12 8 6 2 1 2 4 5 7 9 8 9 14 15 17 19
23 21 19 17 14 12 9 7 4 1 1 3 6 8 10 11 11 13 17 18 20 22
21 19 17 15 12 9 7 5 2 1 3 6 9 12 14 14 13 18 20 21 22 23
20 17 15 12 10 7 5 3 1 4 7 9 13 15 17 17 19 22 23 24 25 25
18 15 12 9 8 5 2 1 4 7 11 14 17 19 20 20 22 24 25 25 27 28
15 12 10 8 6 3 1 4 8 13 16 19 22 23 24 24 24 26 27 27 28 28
13 11 8 5 2 2 5 9 13 17 20 22 25 26 26 26 27 27 29 30 29 29
12 9 6 2 3 6 9 13 17 20 23 25 28 29 29 30 31 31 33 31 31 31
9 6 4 4 7 11 14 18 20 23 27 29 31 30 30 30 32 31 33 34 32 31
8 6 5 8 12 16 19 21 25 29 32 33 33 33 31 31 29 28 31 30 32 33

GFSNIL_925_spd_207.txt.gz
Wind_Speed
20 26 24 22 24 23 25 21 16 16 16 14 13 12 11 10 9 7 6 6 5 5
25 25 25 24 23 21 23 21 18 17 17 14 12 10 8 8 7 5 6 6 6 7
31 28 30 28 29 27 24 24 20 17 15 13 10 8 7 7 6 5 6 6 7 8
29 28 30 32 32 27 26 24 19 15 13 11 10 9 7 6 5 4 4 6 9 10
28 30 32 31 28 27 24 21 20 16 12 10 9 7 5 5 5 5 6 8 11 14
28 30 30 29 25 23 22 20 17 15 13 10 7 4 4 5 7 7 8 11 14 16
31 30 28 26 26 23 20 19 17 14 11 7 5 3 5 6 7 9 10 12 14 16
32 32 31 28 25 21 17 16 14 11 8 4 3 5 7 8 9 12 14 15 16 18
36 32 28 25 22 18 16 14 11 9 5 2 5 7 8 10 13 14 16 18 19 19
31 28 25 22 19 18 16 13 9 6 2 3 6 10 12 14 14 14 16 18 19 20
30 26 22 21 19 16 13 10 7 3 2 6 9 12 14 14 15 16 17 17 17 19
26 25 22 19 16 13 10 6 2 2 5 8 11 12 14 15 16 17 17 16 16 19
21 20 18 16 13 10 6 2 2 4 6 8 11 13 15 14 16 17 16 17 19 21
19 18 16 14 10 7 4 2 3 5 8 10 12 13 13 13 15 16 18 18 22 23

GFSNIL_925_spd_210.txt.gz
Wind_Speed
25 16 19 19 29 26 24 22 20 18 15 16 16 15 15 15 16 13 12 12 11 10
40 23 24 22 23 24 23 23 21 18 16 17 19 15 13 13 15 13 12 12 9 8
37 33 35 36 34 31 29 25 22 25 24 20 17 14 13 14 14 13 11 9 7 6
40 43 41 37 37 34 28 29 29 24 21 18 16 15 14 14 12 10 7 4 5 5
31 36 37 37 34 31 31 29 26 23 19 18 16 14 12 12 9 7 4 2 5 6
35 37 38 37 32 32 29 26 23 21 20 18 15 11 10 9 7 5 3 4 7 8
36 38 38 38 35 33 30 26 24 20 18 15 13 9 8 6 5 4 4 6 8 9
37 38 35 33 31 29 28 24 22 21 17 14 10 7 5 4 4 4 6 8 9 11
37 38 37 34 30 26 24 24 20 17 14 12 8 6 5 4 4 5 7 10 12 12
37 36 35 33 30 28 24 21 18 16 12 10 7 4 3 3 5 7 9 11 11 13
37 39 37 32 28 25 22 19 17 14 10 6 3 2 4 6 8 9 10 11 11 12
38 35 32 29 26 23 22 18 13 9 5 2 1 4 7 9 9 10 10 10 11 13
35 33 30 27 24 21 17 14 10 7 2 1 4 6 7 7 8 10 10 11 11 15
28 27 26 24 20 18 15 11 7 3 0 3 5 6 7 7 8 9 11 11 14 15